UOSAT-12 - Orbit

View from above orbital plane
View from above orbital plane
View from above satellite
View from above satellite

Ground track
Ground track

The orbit data is extracted from the following two-line orbital elements,

1 25693U 99021A   13142.12548979  .00000274  00000-0  55389-4 0  1520
2 25693 064.5582 025.5214 0015010 333.3033 185.0533 14.79502592760058
Epoch (UTC): 22 May 2013 03:00:42
Eccentricity: 0.0015010
inclination: 64.5582°
perigee height: 620 km
apogee height: 641 km
right ascension of ascending node: 25.5214°
argument of perigee: 333.3033°
revolutions per day: 14.79502592
mean anomaly at epoch: 185.0533°
orbit number at epoch: 76005

The dashed part of the orbit path shows where the satellite is in the earth's shadow,  

Developed and maintained by Chris Peat, Heavens-Above GmbH. Please read the updated FAQ before sending e-mail. Imprint. DLR